Monterey, CA

9:15 PM PDT on September 23, 2017 (GMT -0700)
Monterey Peninsula

Weather History for KMRY - January, 2014

Change the Weather History Date:

Monday, January 13, 2014

  Actual Average Record
Temperature  
Mean Temperature 60 °F 51 °F  
Max Temperature 76 °F 59 °F 80 °F (2009)
Min Temperature 43 °F 42 °F 25 °F (2007)
Degree Days  
Heating Degree Days 5    
Month to date heating degree days 151  
Since 1 July heating degree days 1366  
Cooling Degree Days 0    
Month to date cooling degree days 0  
Year to date cooling degree days 0  
Growing Degree Days 9 (Base 50)    
Moisture  
Dew Point 32 °F    
Average Humidity 42    
Maximum Humidity 65    
Minimum Humidity 18    
Precipitation  
Precipitation 0.00 in - 0.05 in (2016)
Month to date precipitation T  
Year to date precipitation T  
Since 1 July precipitation 1.28  
Sea Level Pressure  
Sea Level Pressure 30.39 in    
Wind  
Wind Speed 6 mph (ENE)    
Max Wind Speed 14 mph    
Max Gust Speed 15 mph    
Visibility 10 miles    
Events      
T = Trace of Precipitation, MM = Missing Value Source: NWS Daily Summary

Daily Weather History Graph

Daily Weather History Graph

Search for Another Location

Airport or City:

Trip Planner

Search our weather history database for the weather conditions in past years. The results will help you decide how hot, cold, wet, or windy it might be!

Date:

Astronomy

Jan. 13, 2014 Rise Set
Actual Time 7:19 AM PST 5:13 PM PST
Civil Twilight 6:50 AM PST 5:41 PM PST
Nautical Twilight 6:19 AM PST 6:13 PM PST
Astronomical Twilight 5:48 AM PST 6:44 PM PST
Moon 3:32 PM PST (1/13) 5:12 AM PST (1/13)
Length of Visible Light 10h 50m
Length of Day
9h 54m
Waxing Gibbous, 95% of the Moon is Illuminated
Jan 13
Waxing Gibbous
Jan 15
Full
Jan 23
Last Quarter
Jan 30
New
Feb 6
First Quarter

Hourly Weather History & Observations

Time (PST) Temp. Windchill Dew Point Humidity Pressure Visibility Wind Dir Wind Speed Gust Speed Precip Events Conditions
12:54 AM 45.0 °F 39.7 °F 34.0 °F 65% 30.36 in 10.0 mi East 10.4 mph - N/A   Clear
1:54 AM 45.0 °F 40.6 °F 33.1 °F 63% 30.37 in 10.0 mi East 8.1 mph - N/A   Clear
2:54 AM 45.0 °F 39.7 °F 33.1 °F 63% 30.38 in 10.0 mi East 10.4 mph - N/A   Clear
3:54 AM 44.1 °F 39.5 °F 33.1 °F 65% 30.39 in 10.0 mi East 8.1 mph - N/A   Clear
4:54 AM 44.1 °F 40.1 °F 32.0 °F 63% 30.38 in 10.0 mi East 6.9 mph - N/A   Clear
5:54 AM 43.0 °F 38.8 °F 30.9 °F 62% 30.39 in 10.0 mi ENE 6.9 mph - N/A   Clear
6:54 AM 44.1 °F 39.5 °F 30.9 °F 60% 30.40 in 10.0 mi East 8.1 mph - N/A   Clear
7:54 AM 45.0 °F 42.6 °F 30.9 °F 58% 30.42 in 10.0 mi East 4.6 mph - N/A   Clear
8:54 AM 53.1 °F - 32.0 °F 45% 30.44 in 10.0 mi ENE 5.8 mph - N/A   Clear
9:54 AM 61.0 °F - 33.1 °F 35% 30.44 in 10.0 mi ENE 5.8 mph - N/A   Clear
10:54 AM 66.0 °F - 34.0 °F 30% 30.43 in 10.0 mi NE 5.8 mph - N/A   Clear
11:54 AM 69.1 °F - 33.1 °F 26% 30.40 in 10.0 mi NNE 8.1 mph - N/A   Clear
12:54 PM 72.0 °F - 33.1 °F 24% 30.38 in 10.0 mi NNE 3.5 mph - N/A   Clear
1:54 PM 75.0 °F - 28.9 °F 18% 30.37 in 10.0 mi Variable 4.6 mph - N/A   Clear
2:54 PM 75.9 °F - 28.9 °F 18% 30.36 in 10.0 mi NNW 3.5 mph - N/A   Clear
3:54 PM 73.9 °F - 28.9 °F 19% 30.37 in 10.0 mi NNE 4.6 mph - N/A   Clear
4:54 PM 70.0 °F - 34.0 °F 27% 30.38 in 10.0 mi NNE 4.6 mph - N/A   Clear
5:54 PM 63.0 °F - 33.1 °F 33% 30.38 in 10.0 mi ENE 4.6 mph - N/A   Clear
6:54 PM 55.0 °F - 33.1 °F 43% 30.40 in 10.0 mi ESE 3.5 mph - N/A   Clear
7:54 PM 51.1 °F - 32.0 °F 48% 30.40 in 10.0 mi East 3.5 mph - N/A   Clear
8:54 PM 48.0 °F - 32.0 °F 54% 30.41 in 10.0 mi East 3.5 mph - N/A   Clear
9:54 PM 48.0 °F - 30.0 °F 50% 30.40 in 10.0 mi SE 3.5 mph - N/A   Clear
10:54 PM 46.0 °F - 28.9 °F 51% 30.40 in 10.0 mi Calm Calm - N/A   Clear
11:54 PM 45.0 °F 42.6 °F 28.0 °F 52% 30.39 in 10.0 mi East 4.6 mph - N/A   Clear